Philadelphia, PA

12:36 PM EST on November 15, 2019 (GMT -0500)
Philadelphia International

Weather History for KPHL - May, 2019

Change the Weather History Date:

Friday, May 3, 2019

  Actual Average Record
Temperature  
Mean Temperature 61 °F 60 °F  
Max Temperature 69 °F 70 °F 91 °F (2018)
Min Temperature 52 °F 50 °F 35 °F (1966)
Degree Days  
Heating Degree Days 4 6  
Month to date heating degree days 12 19  
Since 1 July heating degree days 4297 4509  
Cooling Degree Days 0 1  
Month to date cooling degree days 3 3  
Year to date cooling degree days 27 16  
Growing Degree Days 10 (Base 50)    
Moisture  
Dew Point 53 °F    
Average Humidity 84    
Maximum Humidity 100    
Minimum Humidity 68    
Precipitation  
Precipitation T in 0.11 in 1.36 in (1985)
Month to date precipitation T 0.32  
Year to date precipitation 14.06 13.35  
Snow  
Snow 0.00 in 0.00 in 0.00 in ()
Month to date snowfall 0.0 0.0  
Since 1 July snowfall 17.1 22.4  
Snow Depth 0.00 in    
Sea Level Pressure  
Sea Level Pressure 30.07 in    
Wind  
Wind Speed 7 mph (ENE)    
Max Wind Speed 16 mph    
Max Gust Speed 20 mph    
Visibility 7 miles    
Events      
T = Trace of Precipitation, MM = Missing Value Source: NWS Daily Summary

Daily Weather History Graph

Daily Weather History Graph

Search for Another Location

Airport or City:

Astronomy

May. 03, 2019 Rise Set
Actual Time 5:59 AM EDT 7:57 PM EDT
Civil Twilight 5:29 AM EDT 8:26 PM EDT
Nautical Twilight 4:53 AM EDT 9:02 PM EDT
Astronomical Twilight 4:15 AM EDT 9:41 PM EDT
Moon 5:38 AM EDT (5/3) 6:42 PM EDT (5/3)
Length of Visible Light 14h 57m
Length of Day
13h 58m
Waning Crescent, 2% of the Moon is Illuminated
May 3
Waning Crescent
May 4
New
May 11
First Quarter
May 18
Full
May 26
Last Quarter

Hourly Weather History & Observations

Time (EDT) Temp. Dew Point Humidity Pressure Visibility Wind Dir Wind Speed Gust Speed Precip Events Conditions
12:08 AM 55.9 °F 53.1 °F 90% 30.15 in 7.0 mi ENE 11.5 mph - N/A   Overcast
12:27 AM 55.9 °F 53.1 °F 90% 30.15 in 5.0 mi ENE 10.4 mph - N/A   Overcast
12:54 AM 55.0 °F 53.1 °F 93% 30.15 in 5.0 mi ENE 12.7 mph - N/A   Overcast
1:34 AM 54.0 °F 52.0 °F 93% 30.14 in 5.0 mi ENE 13.8 mph - N/A   Overcast
1:54 AM 54.0 °F 52.0 °F 93% 30.14 in 5.0 mi East 10.4 mph - N/A   Overcast
2:54 AM 54.0 °F 51.1 °F 90% 30.14 in 6.0 mi East 10.4 mph - N/A   Overcast
3:10 AM 53.1 °F 51.1 °F 93% 30.13 in 4.0 mi East 10.4 mph - N/A   Overcast
3:54 AM 53.1 °F 51.1 °F 93% 30.12 in 4.0 mi ENE 9.2 mph - N/A   Overcast
4:54 AM 52.0 °F 51.1 °F 97% 30.10 in 4.0 mi ENE 9.2 mph - N/A   Overcast
5:19 AM 52.0 °F 50.0 °F 93% 30.09 in 6.0 mi ENE 9.2 mph - N/A   Overcast
5:54 AM 52.0 °F 50.0 °F 93% 30.10 in 6.0 mi ENE 6.9 mph - N/A   Overcast
6:39 AM 52.0 °F 50.0 °F 93% 30.11 in 4.0 mi ENE 8.1 mph - N/A   Overcast
6:48 AM 51.8 °F 50.0 °F 94% 30.11 in 2.0 mi ENE 6.9 mph - N/A   Overcast
6:54 AM 52.0 °F 50.0 °F 93% 30.11 in 2.0 mi ENE 9.2 mph - N/A   Overcast
7:04 AM 52.0 °F 50.0 °F 93% 30.10 in 1.8 mi ENE 8.1 mph - N/A   Overcast
7:27 AM 52.0 °F 50.0 °F 93% 30.11 in 3.0 mi ENE 8.1 mph - N/A   Overcast
7:54 AM 52.0 °F 50.0 °F 93% 30.11 in 4.0 mi ENE 9.2 mph - N/A   Overcast
8:23 AM 53.1 °F 51.1 °F 93% 30.11 in 5.0 mi ENE 8.1 mph - N/A   Overcast
8:54 AM 53.1 °F 51.1 °F 93% 30.11 in 6.0 mi ENE 9.2 mph - N/A   Overcast
9:36 AM 54.0 °F 51.1 °F 90% 30.11 in 7.0 mi ENE 8.1 mph - N/A   Overcast
9:54 AM 55.0 °F 51.1 °F 86% 30.11 in 8.0 mi ENE 8.1 mph - N/A   Overcast
10:35 AM 55.9 °F 51.1 °F 84% 30.10 in 10.0 mi East 8.1 mph - N/A   Overcast
10:54 AM 57.0 °F 51.1 °F 81% 30.11 in 10.0 mi ENE 6.9 mph - N/A   Overcast
11:54 AM 57.9 °F 52.0 °F 81% 30.09 in 10.0 mi East 9.2 mph - N/A   Overcast
12:54 PM 59.0 °F 53.1 °F 81% 30.08 in 10.0 mi ENE 5.8 mph - 0.00 in   Overcast
1:54 PM 60.1 °F 53.1 °F 78% 30.07 in 10.0 mi ENE 6.9 mph - N/A   Overcast
2:54 PM 63.0 °F 55.0 °F 75% 30.04 in 10.0 mi Variable 3.5 mph - N/A   Overcast
3:08 PM 63.0 °F 54.0 °F 72% 30.03 in 10.0 mi NE 5.8 mph - N/A   Overcast
3:54 PM 66.0 °F 55.9 °F 70% 30.00 in 10.0 mi Variable 3.5 mph - N/A   Overcast
4:30 PM 66.9 °F 55.9 °F 68% 29.99 in 10.0 mi Calm Calm - N/A   Mostly Cloudy
4:54 PM 66.9 °F 57.0 °F 70% 29.98 in 10.0 mi Calm Calm - N/A   Mostly Cloudy
5:54 PM 68.0 °F 57.0 °F 68% 29.96 in 10.0 mi NE 5.8 mph - N/A   Scattered Clouds
6:54 PM 64.9 °F 55.9 °F 73% 29.95 in 10.0 mi ENE 4.6 mph - N/A   Scattered Clouds
7:54 PM 64.0 °F 55.9 °F 75% 29.96 in 10.0 mi NE 8.1 mph - N/A   Overcast
8:54 PM 62.1 °F 55.9 °F 80% 29.97 in 10.0 mi ENE 5.8 mph - N/A   Mostly Cloudy
9:54 PM 61.0 °F 55.0 °F 81% 29.98 in 10.0 mi ENE 6.9 mph - N/A   Overcast
10:54 PM 60.1 °F 55.0 °F 83% 29.97 in 10.0 mi ENE 8.1 mph - N/A   Overcast
11:32 PM 60.1 °F 55.0 °F 83% 29.97 in 10.0 mi ENE 4.6 mph - N/A   Overcast
11:54 PM 60.1 °F 54.0 °F 80% 30.00 in 10.0 mi NNW 13.8 mph - N/A   Overcast